"Pseudo-MPEC" for P20OOaH

Created 2019 Jun 16 22:08:03 UT using Find_Orb

Click here for an explanation of pseudo-MPECs

 
 Astrometry: 
     P20OOaH  C2019 05 27FUM3;c'j=T!R'ne($@3D'(Hxr=Ca%ZY%5a8+JsuhMQt.E96$3#HoF51
     P20OOaH  C2019 05 27,pmXh6@mJSr::1Ee*t-2K[@KN1Oa4Q0t$-j:M]?ZUYu@$:%R!7$6F51
     P20OOaH  C2019 05 271OdvX%e/6_1nl!.s8'TH`)hwGqx8u4$$R61eEG%1;K2$y%+-Ml6oF51
     P20OOaH  C2019 05 2703=[eUVSY4+4JSJ2[Y^G77LwDyCZISGfi2uEe/4Jw8fPb^=wrUE/F51
     P20OOaH  C2019 05 30lK,6%OJN]KnL]iKR9LORlZnQwlI,k2xshAlI_==e-kV9*(i6N#_YF52
     P20OOaH  C2019 05 30TQ\`vo^lB4Dr7^5UIinEUy'xi/!NiUYKoUt-3ja_'Et\H=R=.pw,F52
     P20OOaH  C2019 06 079-bhPq!Ug1Pt3Fb#-G^,BA/9sL0[v-Bin*WDU3BD*q1PYh^LDmSpF52
     P20OOaH  C2019 06 07AY/3Dy((V8C4A0+R;@yEmw!:Qq[0w8@e6?GsOM1MTEn+GYIg2H40F52
     P20OOaH  C2019 06 07$O;ud%Mylmr9ffQOtPCm[jL_29a#e);nwBJw4=oM]qm4h?D[ha9TF52
     P20OOaH  C2019 06 08.22559 15 54 13.20 -03 24 35.5    ~691q 20.7 GVNEOCPI52
     P20OOaH  C2019 06 08.23225 15 54 12.34 -03 24 19.8    ~691q 21.1 GVNEOCPI52
     P20OOaH  C2019 06 08.23558 15 54 11.92 -03 24 13.2    ~691q 20.9 GVNEOCPI52
     P20OOaH  C2019 06 09.30758 15 52 50.31 -02 40 05.0    ~6987 21.1 GVNEOCPI52
     P20OOaH  C2019 06 09.31156 15 52 49.74 -02 39 54.1    ~6987 20.7 GVNEOCPI52
     P20OOaH  C2019 06 09.31554 15 52 49.14 -02 39 43.2    ~6987 20.8 GVNEOCPI52
     P20OOaH  C2019 06 09.31952 15 52 48.58 -02 39 32.2    ~6987 20.5 GVNEOCPI52
     P20OOaH pC2019 06 09!U#@^u[,sWWJkN?rfkfTkTsiiNXPg2+BA.cZ^xf1Vw[!LTtly`FEL01
     P20OOaH KC2019 06 09n@4]nlg5YrX[AZ?s!*Ox?+$s%pM?qrgk,$_ykN2d,fE'!U*TAiYnL01
     P20OOaH KC2019 06 09n)AgT9TEF2^y$3eBsQA!R9VT;:/\*BPR%LtZe(Ye;sQ);J[6%3O[L01
     P20OOaH KC2019 06 11BjP+4'0@`\:@Cg^,1IisAstrometryJy8k4Z5?;RFKs,.3'00[QHH21
     P20OOaH KC2019 06 11S7Y'_u+!NCF=W[[vv4Ba)0N0t_kK-DcADOO\$s\AP'nj#pQ,ZpT?H21
     P20OOaH KC2019 06 11aZ_wG9A(redacted;ipGChNrD/gi2]t?dT5rMQRTjOU*J7Mu/tr0H21
     P20OOaH KC2019 06 12bF(`Uo)B-$aK2PC`[vnL%I0*;]%JWw4sxq3-@=OMu6x-ABmr;(QeH21
     P20OOaH KC2019 06 12l[ZO:*`8s3jjGwdM89=6^2H;*cw6(jKb?clickfGZ$tmnnE(fr@YH21
     P20OOaH KC2019 06 12jWZNC(C(EAN1ij*Uk3e2[)Z'2GS,ZC=:LavoiBj-Jhere!Pn`,`$H21
     P20OOaH KC2019 06 14s%jU/K6uLi',gE!9,Q.OMS6wTfFnL,sFecUthEInh+UUPVn6-We[595
     P20OOaH KC2019 06 140U2AX3nfor`n*I#Xl\`jg;FqKn-3KLH5'ZTmAJe'explanationr595
     P20OOaH KC2019 06 15.92679215 25 11.95 +14 31 53.1    ~6FMq 18.6 GVNEOCPJ95
     P20OOaH KC2019 06 15.93006415 25 08.36 +14 33 38.5    ~6FMq 18.3 GVNEOCPJ95
     P20OOaH KC2019 06 15.93381415 25 04.24 +14 35 38.8    ~6FMq 18.5 GVNEOCPJ95
     P20OOaH KC2019 06 15.93731915 25 00.39 +14 37 31.7    ~6FMq 18.5 GVNEOCPJ95
     P20OOaH KC2019 06 16.00867 15 23 37.30 +15 17 54.9    ~6G1M 18.4 VqNEOCPI93
     P20OOaH KC2019 06 16.01558 15 23 29.27 +15 21 47.6    ~6G1M 18.3 VqNEOCPI93
     P20OOaH KC2019 06 16.02243 15 23 21.40 +15 25 38.7    ~6G1M 18.4 VqNEOCPI93
     P20OOaH KC2019 06 16I*O\vQ7B+,BVX6=EbimwJM+tLQ:-#c8SEh*=%HfHXD_ui!\RBc^I160
     P20OOaH KC2019 06 168dTRrW;dd;RoX2O[xx9v75?8-UjPr(y0m-?d2]OMix_!M@S%4O#n160
     P20OOaH KC2019 06 16.0#y`v[9,(FI!e[^nbNFG)MB7S0fI35Xwl18hl+uuRxPq35eu=ev160
     P20OOaH KC2019 06 168r7k(Xo;G'm98+\^6W3B/dmvS2qpwGJ6@[NPuWehIJJ.:[u]D_P@160

Station data:
(160) Castelmartini  (N43.823061 E10.841440)  Italy.
(595) Farra d'Isonzo  (N45.915734 E13.525780)  Italy.  Observers L.
   Bittesini, F. Fabris, E. Pettarin, F. Piani. Measurer E. Pettarin. 0.30-m
   f/4.5 reflector + CCD.
(F51) Pan-STARRS 1, Haleakala  (N20.707235 W156.255910)  US/Hawaii.
   Observers N. Primak, A. Schultz, S. Watters, J. Thiel, T. Goggia. Measurer
   PS1 Science Consortium. 1.8-m Ritchey-Chrétien + CCD.
(F52) Pan-STARRS 2, Haleakala  (N20.707384 W156.255910)  US/Hawaii. 1.8-m
   Ritchey-Chrétien + CCD.
(H21) Astronomical Research Observatory, Westfield  (N39.483057 W87.968270)
   US/Illinois. 0.76-m f/3.0 astrograph + CCD.
(I52) Steward Observatory, Mt. Lemmon Station  (N32.442547 W110.788920)
   US/Arizona.  Observers T. A. Pruyne, B. M. Africano, E. J. Christensen, G.
   A. Farneth, D. C. Fuls, A. R. Gibbs, A. D. Grauer, H. Groeller, J. A.
   Johnson, R. A. Kowalski, S. M. Larson, G. J. Leonard, R. L. Seaman, F. C.
   Shelly. 1.0-m reflector + CCD.
(I93) St Pardon de Conques  (N44.558710 W0.203000)  France.  Observer F.
   Losse. 0.40-m f/3.7 reflector + CCD.
(J95) Great Shefford  (N51.474969 W1.447003)  UK.  Observer P. Birtwhistle.
   0.40-m f/6.0 Schmidt-Cassegrain + CCD.
(L01) Višnjan Observatory, Tičan  (N45.290900 E13.749300)  Croatia.
   Observers K. Korlević, E. Pettarin. Measurer E. Pettarin. 1.0-m f/2.9
   reflector + CCD.

Orbital elements:  P20OOaH
   Perihelion 2019 Jul 28.551880 +/- 0.00351 TT = 13:14:42 (JD 2458693.051880)
Epoch 2019 Jun 16.0 TT = JDT 2458650.5   Earth MOID: 0.0045   Ma: 0.0407
M 335.34519122 +/- 0.009            (J2000 ecliptic)          AutoNEOCP
n   0.57940586 +/- 0.000184         Peri.  223.90310 +/- 0.00031
a   1.42499756 +/- 0.000302         Node    91.23665 +/- 0.00023
e   0.3516099 +/- 0.000159          Incl.    2.79257 +/- 0.0009
P   1.70/621.31d           H 26.6   G  0.15   U  7.0  
q 0.92395420 +/- 3.07e-5    Q 1.92604092 +/- 0.000636
From 38 observations 2019 May 27-June 16; mean residual 0".40
Residuals in arcseconds: 
190527 F51  .15+  .04-    190609 I52  .10+  .27-    190614 595  .23+  1.1-    
190527 F51  .07+  .14-    190609 I52  .08-  .35-    190615 J95  .19+  .08+    
190527 F51  .02+  .01-    190609 I52  .31+  .35-    190615 J95  .03+  .37+    
190527 F51  .09+  .07+    190609 L01  1.4-  .84+    190615 J95  .09-  .04-    
190530 F52  .03-  .12-    190609 L01  1.1-  .93+    190615 J95  .06-  .18-    
190530 F52  .14+  .11-    190609 L01  .41-  .67+    190616 I93  .63+  .10+    
190607 F52  .13+  .14-    190611 H21  .48+  .15-    190616 I93  .22-  .41+    
190607 F52  .18+  .12-    190611 H21  .51+  .04+    190616 I93  .24+  .24+    
190607 F52  .06-  .03+    190611 H21  .07+  .09-    190616 160  .66-  .72+    
190608 I52  .00   .34-    190612 H21  .13+  .35-    190616 160  .16+  .22-    
190608 I52  .11+  .57+    190612 H21  .29+  .16-    190616 160  .12+  .61-    
190608 I52  .34+  .23-    190612 H21  .08+  .11-    190616 160  .15-  1.0-    
190609 I52  .20-  .19-    190614 595  .00   .52-    

Ephemerides (geocentric):
Date (UTC) HH   RA              Dec         delta   r     elong  mag " sig PA
---- -- -- --  -------------   -----------  ------ ------ -----  --- ---- ---
2019 06 16 22  15 01 12.404   +27 56 30.84  .00794 1.0194 116.1 18.4 .354   2
2019 06 16 23  14 59 30.495   +28 46 37.31  .00780 1.0192 115.2 18.4 .373   1
2019 06 17 00  14 57 42.895   +29 38 35.21  .00765 1.0190 114.3 18.4 .394   0
2019 06 17 01  14 55 49.126   +30 32 28.74  .00750 1.0189 113.3 18.4 .418 179
2019 06 17 02  14 53 48.656   +31 28 22.11  .00736 1.0187 112.3 18.4 .443 178
2019 06 17 03  14 51 40.895   +32 26 19.42  .00722 1.0185 111.2 18.4 .470 177
2019 06 17 04  14 49 25.182   +33 26 24.64  .00708 1.0183 110.2 18.4 .500 176
2019 06 17 05  14 47 00.778   +34 28 41.51  .00695 1.0182 109.0 18.4 .533 175
2019 06 17 06  14 44 26.855   +35 33 13.49  .00681 1.0180 107.9 18.4 .569 174
2019 06 17 07  14 41 42.478   +36 40 03.61  .00668 1.0178 106.6 18.4 .608 173
2019 06 17 08  14 38 46.595   +37 49 14.36  981198 1.0177 105.4 18.4 .650 171
2019 06 17 09  14 35 38.016   +39 00 47.52  962865 1.0175 104.0 18.4 .696 170
2019 06 17 10  14 32 15.390   +40 14 44.03  945075 1.0173 102.7 18.4 .747 169
2019 06 17 11  14 28 37.183   +41 31 03.71  927858 1.0171 101.3 18.4 .801 168
2019 06 17 12  14 24 41.646   +42 49 45.09  911249 1.0170  99.8 18.4 .860 166
2019 06 17 13  14 20 26.781   +44 10 45.07  895279 1.0168  98.3 18.4 .923 165
2019 06 17 14  14 15 50.300   +45 33 58.67  879985 1.0166  96.7 18.4 0.99 163
2019 06 17 15  14 10 49.583   +46 59 18.60  865403 1.0165  95.1 18.5 1.06 162
2019 06 17 16  14 05 21.619   +48 26 34.87  851569 1.0163  93.4 18.5 1.14 160
2019 06 17 17  13 59 22.951   +49 55 34.36  838520 1.0161  91.7 18.5 1.23 158
2019 06 17 18  13 52 49.614   +51 26 00.26  826294 1.0159  89.9 18.6 1.31 157
2019 06 17 19  13 45 37.063   +52 57 31.53  814928 1.0158  88.0 18.6 1.41 155
2019 06 17 20  13 37 40.116   +54 29 42.21  804459 1.0156  86.1 18.7 1.51 153
2019 06 17 21  13 28 52.899   +56 02 00.81  794921 1.0154  84.2 18.7 1.61 150
2019 06 17 22  13 19 08.834   +57 33 49.52  786350 1.0153  82.2 18.8 1.72 148
2019 06 17 23  13 08 20.672   +59 04 23.51  778778 1.0151  80.2 18.9 1.83 145
2019 06 18 00  12 56 20.639   +60 32 50.24  772233 1.0149  78.2 18.9 1.95 142
2019 06 18 01  12 43 00.730   +61 58 08.96  766742 1.0147  76.1 19.0 2.07 139
2019 06 18 02  12 28 13.247   +63 19 10.53  762329 1.0146  74.0 19.1 2.19 135
2019 06 18 03  12 11 51.651   +64 34 37.88  759012 1.0144  71.9 19.2 2.31 131
2019 06 18 04  11 53 51.786   +65 43 07.52  756806 1.0142  69.7 19.4 2.44 127
2019 06 18 05  11 34 13.454   +66 43 12.46  755720 1.0141  67.6 19.5 2.56 122
2019 06 18 06  11 13 02.144   +67 33 27.11  755760 1.0139  65.5 19.6 2.68 117
2019 06 18 07  10 50 30.481   +68 12 33.98  756925 1.0137  63.3 19.8 2.81 111
2019 06 18 08  10 26 58.779   +68 39 31.78  759211 1.0136  61.2 19.9 2.92 105
2019 06 18 09  10 02 54.079   +68 53 43.29  762606 1.0134  59.1 20?? 3.04 100
2019 06 18 10  09 38 47.496   +68 55 01.11  767098 1.0132  57.1 20?? 3.15  94
2019 06 18 11  09 15 10.388   +68 43 49.27  772666 1.0130  55.0 20?? 3.25  88
2019 06 18 12  08 52 30.448   +68 21 00.18  779287 1.0129  53.0 20?? 3.35  83
2019 06 18 13  08 31 08.868   +67 47 47.66  786936 1.0127  51.1 20?? 3.45  77
2019 06 18 14  08 11 19.179   +67 05 38.23  795581 1.0125  49.2 21?? 3.54  73
2019 06 18 15  07 53 07.650   +66 16 02.68  805192 1.0124  47.3 21?? 3.62  68
2019 06 18 16  07 36 34.666   +65 20 29.41  815734 1.0122  45.5 21?? 3.70  64
2019 06 18 17  07 21 36.451   +64 20 19.96  827172 1.0120  43.8 21?? 3.77  61
2019 06 18 18  07 08 06.677   +63 16 46.67  839468 1.0119  42.1 22?? 3.83  58
2019 06 18 19  06 55 57.731   +62 10 51.87  852587 1.0117  40.5 22?? 3.89  55
2019 06 18 20  06 45 01.611   +61 03 28.08  866489 1.0115  39.0 22?? 3.94  52
2019 06 18 21  06 35 10.495   +59 55 18.77  881139 1.0114  37.5 22?? 3.99  50